Weather History for Santiago, Dominican Republic

Change the Weather History Date:

Tuesday, October 16, 2012

  Actual Average Record
Temperature  
Mean Temperature 74 °F -  
Max Temperature 77 °F 88 °F 93 °F (2002)
Min Temperature 72 °F 69 °F 68 °F (2005)
Cooling Degree Days 10    
Growing Degree Days 24 (Base 50)    
Moisture  
Dew Point 74 °F    
Average Humidity 85    
Maximum Humidity 100    
Minimum Humidity 41    
Precipitation  
Precipitation 0.35 in 0.16 in - ()
Sea Level Pressure  
Sea Level Pressure 29.78 in    
Wind  
Wind Speed 4 mph ()    
Max Wind Speed 13 mph    
Max Gust Speed -    
Visibility 5.6 miles    
Events Rain , Thunderstorm    
Averages and records for this station are not official NWS values.
T = Trace of Precipitation, MM = Missing Value Source: Averaged Metar Reports

Daily Weather History Graph

Daily Weather History Graph

Search for Another Location

Airport:

Trip Planner

Search our weather history database for the weather conditions in past years. The results will help you decide how hot, cold, wet, or windy it might be!

Date:

Astronomy

Oct. 16, 2012 Rise Set
Actual Time 6:37 AM AST 6:18 PM AST
Civil Twilight 6:15 AM AST 6:40 PM AST
Nautical Twilight 5:49 AM AST 7:05 PM AST
Astronomical Twilight 5:23 AM AST 7:31 PM AST
Moon 7:40 AM AST (10/16) 7:19 PM AST (10/16)
Length of Visible Light 12h 25m
Length of Day
11h 40m
New Moon, 2% of the Moon is Illuminated
Oct 16
New Moon
Oct 21
First Quarter
Oct 29
Full
Nov 6
Last Quarter
Nov 13
New

Hourly Weather History & Observations

Time (AST) Temp. Heat Index Dew Point Humidity Pressure Visibility Wind Dir Wind Speed Gust Speed Precip Events Conditions
12:00 AM 77.0 °F - 77.0 °F 100% 29.77 in 6.2 mi WNW 6.9 mph - N/A   Mostly Cloudy
1:00 AM 77.0 °F - 77.0 °F 100% 29.77 in 3.1 mi WNW 6.9 mph - N/A Rain Rain
2:00 AM 76 °F - 75 °F 95% 29.77 in 5 mi WSW 4.5 mph - -   Haze
2:00 AM 75.2 °F - 75.2 °F 100% 29.77 in 6.2 mi WSW 5.8 mph - N/A   Mostly Cloudy
3:00 AM 75.2 °F - 75.2 °F 100% 29.71 in 6.2 mi Calm Calm - N/A   Mostly Cloudy
4:00 AM 75.2 °F - 75.2 °F 100% 29.71 in 6.2 mi WSW 4.6 mph - N/A   Scattered Clouds
5:00 AM 76 °F - 75 °F 97% 29.89 in 6 mi Calm Calm - -   Mostly Cloudy
5:00 AM 75.2 °F - 75.2 °F 100% 29.71 in 6.2 mi Calm Calm - N/A   Scattered Clouds
6:00 AM 75.2 °F - 75.2 °F 100% 29.74 in 6.2 mi Calm Calm - N/A   Scattered Clouds
7:00 AM 75.2 °F - 75.2 °F 100% 29.77 in 6.2 mi Calm Calm - N/A   Scattered Clouds
8:00 AM 75 °F - 74 °F 97% 29.79 in 5 mi Calm Calm - -   Haze
8:00 AM 75.2 °F - 75.2 °F 100% 29.77 in 6.2 mi Calm Calm - N/A   Mostly Cloudy
9:00 AM 78.8 °F - 75.2 °F 89% 29.80 in 6.2 mi Calm Calm - N/A   Scattered Clouds
10:00 AM 82.4 °F 89.5 °F 75.2 °F 79% 29.80 in 6.2 mi WNW 10.4 mph - N/A   Scattered Clouds
11:00 AM 85 °F - 74 °F 62% 29.82 in 6 mi WNW 11.2 mph - -   Haze
11:00 AM 84.2 °F 90.9 °F 73.4 °F 70% 29.80 in 6.2 mi WNW 10.4 mph - N/A   Scattered Clouds
12:00 PM 86.0 °F 93.4 °F 73.4 °F 66% 29.80 in 6.2 mi NW 4.6 mph - N/A   Scattered Clouds
1:00 PM 89.6 °F 96.2 °F 71.6 °F 55% 29.77 in 6.2 mi Calm Calm - N/A   Scattered Clouds
2:00 PM 91.4 °F 98.4 °F 71.6 °F 52% 29.74 in 6.2 mi NNW 6.9 mph - N/A   Scattered Clouds
3:00 PM 93.2 °F 96.2 °F 66.2 °F 41% 29.71 in 6.2 mi West 9.2 mph - N/A   Scattered Clouds
3:13 PM 75.2 °F - 73.4 °F 94% - 2.5 mi East 12.7 mph - N/A Rain Heavy Rain
4:00 PM 91.4 °F 96.8 °F 69.8 °F 49% 29.71 in 6.2 mi West 9.2 mph - N/A   Scattered Clouds
5:00 PM 88 °F - 76 °F 60% 29.73 in 6 mi NNW 6.7 mph - -   Haze
5:00 PM 87.8 °F 97.6 °F 75.2 °F 66% 29.71 in 6.2 mi NNW 5.8 mph - N/A   Mostly Cloudy
6:00 PM 80.6 °F 85.4 °F 73.4 °F 79% 29.74 in 5.0 mi ESE 11.5 mph - N/A   Mostly Cloudy
6:13 PM 75.2 °F - 73.4 °F 94% - 2.5 mi East 12.7 mph - N/A Rain Heavy Rain
7:00 PM 75.2 °F - 73.4 °F 94% 29.77 in 3.7 mi Calm Calm - N/A Rain , Thunderstorm Thunderstorms and Rain
8:00 PM 76 °F - 75 °F 97% 29.81 in 6 mi East 4.5 mph - -   Mostly Cloudy
8:00 PM 75.2 °F - 75.2 °F 100% 30.09 in 6.2 mi East 4.6 mph - N/A Thunderstorm Thunderstorm
9:00 PM 75.2 °F - 75.2 °F 100% 29.83 in 6.2 mi WNW 4.6 mph - N/A Thunderstorm Thunderstorm
10:00 PM 75.2 °F - 75.2 °F 100% 29.86 in 5.0 mi Calm Calm - N/A Rain , Thunderstorm Light Thunderstorms and Rain
11:00 PM 75.2 °F - 75.2 °F 100% 29.86 in 6.2 mi Calm Calm - N/A Thunderstorm Light Thunderstorm